Regional Weather Roundup
Issued by NWS

Home | Current Version | Previous Version | Text Only | Print | Product List | Glossary Off
Versions: 1 2 3 4 5 6 7 8 9 10 11 12 13 14 15 16 17 18 19 20 21 22 23 24 25 26 27 28 29 30 31 32 33 34 35 36 37 38 39 40 41 42 43 44 45 46 47 48 49 50

000
ASUS43 KFSD 281302
RWRSD

WEATHER ROUNDUP FOR SOUTH DAKOTA
NATIONAL WEATHER SERVICE SIOUX FALLS SD
700 AM CST SUN DEC 28 2014

NOTE: "FAIR" INDICATES FEW OR NO CLOUDS BELOW 12,000 FEET WITH NO
SIGNIFICANT WEATHER AND/OR OBSTRUCTIONS TO VISIBILITY.


SDZ001>005-009-010-012>017-281400-
NORTHWEST AND NORTH CENTRAL SOUTH DAKOTA

CITY           SKY/WX    TMP DP  RH WIND       PRES   REMARKS
BUFFALO          N/A     20  11  68 SE6       29.84R WCI  12
FAITH            N/A     15   9  76 S3        29.95F
MOBRIDGE       CLOUDY    12   9  87 E5        30.02R WCI   4
$$

SDZ012>016-024>037-041>051-057-063-072>074-281400-
SOUTHWEST AND SOUTH CENTRAL SOUTH DAKOTA

CITY           SKY/WX    TMP DP  RH WIND       PRES   REMARKS
RAPID CTY ARPT MOCLDY     7   2  80 NW5       29.92F WCI  -2
PIERRE         PTCLDY     3   1  91 CALM      30.04R
CUSTER         MOCLDY    12   2  64 CALM      29.82F
ELLSWORTH AFB  MOCLDY    13   4  68 SW3       29.92R
PHILIP         PTCLDY     5   0  79 CALM      30.00F
PINE RIDGE     CLEAR     -1  -6  79 W5        29.95S WCI -11
WINNER         FAIR      10   3  73 S5        30.03S WCI   2
$$

SDZ004>011-016>023-039-040-281400-
NORTHEAST SOUTH DAKOTA

CITY           SKY/WX    TMP DP  RH WIND       PRES   REMARKS
ABERDEEN       CLOUDY    16  12  84 N5        30.11R WCI   9
WATERTOWN      CLOUDY     3   0  87 CALM      30.06R
SISSETON         N/A     15  14  95 N13       30.12R WCI   1
$$

SDZ017-020-022-023-036>040-048>070-281400-
SOUTHEAST SOUTH DAKOTA

CITY           SKY/WX    TMP DP  RH WIND       PRES   REMARKS
SIOUX FALLS    PTCLDY    -1  -5  82 CALM      30.09S
HURON          PTCLDY    -1  -4  87 CALM      30.09S
MITCHELL       PTCLDY     5   3  91 W3        30.10S
YANKTON          N/A      7   1  78 NW3       30.11R VSB 3/4
$$

ABBREVIATIONS USED IN REMARKS
   TC - TEMPERATURE IN CELSIUS
  WCI - WIND CHILL INDEX
   HX - HEAT INDEX
  VSB - VISIBILITY




USA.gov is the U.S. government's official web portal to all federal, state and local government web resources and services.